Wind_Speed
31 17 17 22 26 23 38 47 45 51 51 47 46 52 51 57 61 66 54 61 57 44 19 35 36 41 35 43 47 36 30 29 34 27 19 13 11 17 24 19 8 14 21 22 21 14 14 20 19 24 28 20 18 19
20 12 11 12 3 10 27 40 48 51 47 46 47 45 46 55 65 60 54 62 56 54 24 34 35 34 38 42 39 36 43 35 29 25 21 15 15 15 17 17 39 20 16 18 23 19 21 18 15 19 21 20 21 21
20 13 11 13 18 28 38 43 46 44 43 43 48 50 45 52 60 52 55 60 53 48 44 26 32 36 30 38 41 40 37 26 41 36 27 23 20 22 24 24 20 35 35 29 28 27 25 24 24 26 25 24 25 24
34 16 12 20 27 30 33 36 39 40 38 42 42 40 46 52 54 55 55 54 48 37 32 34 43 37 33 39 34 29 27 37 33 29 32 29 24 23 21 21 24 25 26 38 46 39 33 33 28 27 24 24 24 25
25 32 24 21 27 29 31 34 35 36 41 44 46 45 52 49 56 52 48 48 44 45 25 22 24 39 34 41 43 41 37 24 24 25 35 35 26 19 21 27 30 30 30 32 33 27 27 26 25 29 29 29 31 29
26 25 29 34 29 32 35 36 37 40 41 40 39 52 46 48 50 48 36 33 36 54 40 14 32 28 26 36 41 44 41 33 32 25 23 25 31 29 20 27 25 27 28 30 32 29 30 28 25 27 29 33 28 25
19 26 27 25 28 39 43 43 43 39 38 40 46 46 45 46 42 38 28 33 42 49 38 17 20 34 30 31 34 34 35 38 36 30 31 25 26 28 30 29 16 19 24 29 27 25 27 26 27 28 31 32 27 26
19 20 25 29 31 32 32 33 37 40 41 40 39 39 37 37 32 36 30 25 39 31 30 17 11 34 34 36 36 36 35 34 33 31 28 34 34 30 28 35 33 31 23 19 20 23 26 26 27 27 24 23 25 24
20 21 26 29 31 32 33 35 34 36 37 44 45 42 39 36 33 35 30 19 34 29 11 22 5 18 33 39 37 33 30 30 27 34 31 25 34 24 26 27 24 18 18 20 24 28 31 32 31 30 27 25 27 26
22 26 28 30 30 30 31 35 36 37 39 41 38 36 32 31 21 22 20 18 19 24 27 19 11 11 34 34 36 24 25 21 13 25 23 36 41 35 24 12 14 16 18 20 22 26 28 29 25 28 30 25 25 28
31 41 44 43 39 37 36 35 36 36 34 31 30 31 35 36 33 21 15 19 14 17 29 19 14 16 27 26 27 14 12 10 8 9 17 14 23 31 37 28 26 28 27 25 26 26 22 21 27 24 23 22 22 24
35 37 37 33 36 41 42 41 41 39 37 21 20 42 44 26 17 8 17 19 15 21 16 17 7 20 21 21 14 11 9 9 5 7 10 6 16 21 22 26 29 32 30 27 29 25 22 21 17 22 21 15 16 17
30 33 36 40 41 38 33 34 24 32 27 31 33 29 6 7 6 7 11 8 11 22 31 31 23 13 13 8 6 5 5 4 2 5 4 5 12 17 21 23 26 29 29 27 17 12 14 16 16 15 16 16 15 18
35 35 42 38 27 29 23 19 23 25 33 23 12 11 5 6 6 12 18 18 13 20 22 28 28 19 11 10 6 6 4 2 3 1 3 1 4 8 11 10 11 14 17 15 12 16 13 13 14 10 10 10 9 11
22 22 20 25 24 21 28 28 27 28 19 6 4 4 6 7 12 15 24 26 16 20 23 27 24 19 16 7 7 6 8 4 3 4 4 5 6 7 6 9 9 9 9 8 8 9 11 11 10 10 9 9 9 10
21 22 26 30 27 28 25 23 24 20 11 2 1 7 11 10 11 12 22 29 25 16 14 14 9 7 9 7 8 6 8 6 7 5 5 10 11 12 11 11 11 10 10 9 8 7 6 5 2 3 3 4 5 7
23 22 22 22 18 13 19 14 9 9 6 3 7 13 14 15 16 16 16 22 23 24 25 13 8 7 10 8 8 11 10 12 11 11 14 14 13 13 14 12 10 7 5 5 5 6 6 5 3 2 2 4 7 8
17 19 20 22 23 18 17 8 2 2 9 13 13 14 13 16 19 20 23 24 28 33 26 18 13 9 8 9 11 16 18 16 16 17 16 16 15 15 12 8 5 3 6 9 9 8 5 3 2 4 5 6 8 9
25 37 29 26 21 16 11 2 3 6 13 15 16 16 15 15 16 18 18 18 21 25 24 12 6 10 12 17 20 18 17 17 16 16 15 15 14 13 10 9 10 11 10 9 6 4 3 3 5 6 7 9 11 14
9 14 17 13 11 7 4 6 11 7 10 13 12 12 13 13 13 13 13 13 16 12 8 9 20 21 21 20 18 16 16 15 13 14 16 19 17 15 14 12 9 8 6 5 3 2 3 5 8 11 13 14 16 19
12 10 12 14 5 10 6 5 7 10 10 13 12 10 13 11 7 8 8 8 7 9 22 22 21 20 19 17 17 17 16 14 13 15 19 21 18 13 10 9 7 5 3 2 4 7 9 11 13 15 18 20 23 26
18 12 5 1 4 1 7 7 9 12 15 14 14 13 14 12 10 9 9 9 16 23 24 22 20 19 19 18 18 18 18 16 17 17 17 15 12 10 7 4 2 2 4 6 9 11 13 15 18 20 21 23 25 27
15 10 7 9 9 8 12 11 8 8 6 9 8 11 11 11 10 8 12 22 26 24 22 21 20 18 18 20 20 20 19 17 16 15 12 9 6 3 2 2 4 7 9 11 13 14 15 17 20 22 24 26 28 30
12 12 13 8 8 9 8 10 11 10 10 8 9 12 12 12 10 16 25 24 23 23 21 20 20 20 20 19 19 19 17 13 9 8 7 5 3 4 6 7 8 9 10 12 15 17 19 21 23 25 27 28 29 31
7 9 9 8 7 8 7 9 9 10 12 9 9 9 7 7 7 15 19 20 19 19 19 18 15 14 12 12 12 12 12 11 8 4 3 4 5 5 6 7 10 12 14 16 18 20 22 23 25 26 27 28 28 28
7 7 5 5 6 4 5 6 8 10 7 6 5 7 9 7 4 8 17 19 17 17 16 15 13 11 10 9 9 8 6 5 4 3 2 3 5 7 9 10 12 14 17 19 20 21 23 24 25 25 24 24 25 26
10 11 14 12 11 8 9 9 7 4 3 3 4 5 3 1 2 12 18 18 16 15 14 14 13 11 9 8 7 5 3 2 2 2 4 6 8 9 11 14 15 16 17 19 20 21 21 21 20 21 22 23 24 25
14 17 15 15 13 12 10 8 6 5 4 3 2 1 1 2 4 15 19 17 16 14 13 11 10 9 7 5 4 3 3 3 4 5 6 9 11 13 14 14 15 17 18 18 19 18 17 17 18 19 20 21 23 25
19 17 14 11 10 11 13 13 11 9 7 4 3 3 4 4 8 16 17 16 15 13 12 11 9 7 5 4 3 3 3 4 5 8 10 12 13 13 13 15 16 17 17 17 16 15 16 16 17 19 20 22 23 25
17 14 11 9 11 14 12 10 9 8 7 6 6 3 3 6 10 13 14 14 12 11 9 8 6 5 5 4 3 3 5 7 9 10 11 11 12 13 14 15 16 16 16 15 15 15 15 16 18 19 21 22 23 24
17 13 12 13 14 13 11 9 8 8 8 7 7 7 6 5 7 9 10 10 9 8 7 7 6 6 5 4 4 6 8 9 10 9 9 11 12 13 14 15 14 14 14 14 14 15 16 17 18 19 20 21 22 24
14 13 11 11 11 10 9 8 7 6 5 4 2 1 2 3 4 5 6 6 7 7 7 6 6 5 5 5 7 9 9 9 8 10 11 11 12 13 13 13 13 12 12 13 13 14 15 16 18 19 21 22 23 23
12 11 9 9 8 7 7 6 5 4 3 3 2 3 4 5 5 5 6 6 6 7 6 5 5 5 6 8 9 9 8 9 10 11 11 11 12 13 12 12 11 11 11 12 13 14 16 17 19 20 21 22 23 23
Wind_Direction
330 319 298 294 291 261 217 206 200 191 193 195 190 199 190 188 191 197 204 202 201 205 223 206 205 211 195 199 193 198 193 201 205 201 198 198 203 213 219 232 212 214 211 216 218 228 236 243 242 231 270 270 278 285
349 351 345 350 45 124 160 174 176 178 184 183 184 187 187 185 191 196 203 199 204 208 207 207 215 221 200 202 192 194 213 204 202 200 214 204 212 197 220 226 233 249 239 233 229 238 246 253 261 264 264 267 279 285
22 20 39 61 108 116 138 150 160 168 174 177 181 181 183 182 188 200 200 200 197 207 208 205 224 194 204 189 198 203 203 203 214 217 215 216 216 224 218 227 232 240 241 251 252 250 255 259 272 271 272 277 282 285
34 58 102 99 113 130 141 148 155 162 167 166 167 175 172 178 187 197 199 201 195 201 206 228 226 235 191 194 197 195 221 218 222 224 224 228 235 237 239 233 241 243 241 244 248 253 256 263 263 273 274 275 280 277
45 58 83 119 118 127 139 143 151 153 158 153 161 164 171 175 187 194 200 204 202 200 215 205 215 220 193 195 193 191 205 202 201 210 213 217 220 227 240 241 236 234 236 240 249 260 256 264 262 261 271 277 283 268
62 65 65 95 115 122 130 136 138 138 143 143 154 167 173 180 187 190 189 205 199 202 210 244 221 216 186 190 191 191 196 195 199 205 207 211 221 222 237 243 242 249 246 248 253 253 258 260 258 261 273 278 276 255
74 79 87 92 99 108 115 118 125 130 146 158 160 166 172 178 181 182 186 204 197 202 213 244 235 197 184 184 189 198 201 204 204 212 218 221 226 225 231 238 237 245 252 247 244 247 254 259 267 272 276 277 252 253
95 104 103 108 115 121 128 133 140 146 152 154 158 160 160 167 177 186 193 191 184 181 196 227 247 177 179 181 183 191 196 200 209 217 226 226 228 230 243 245 246 245 236 237 250 254 257 257 260 264 270 261 250 250
94 110 121 123 121 120 125 128 132 140 141 150 153 161 167 174 180 189 200 194 183 186 214 236 265 136 180 164 175 180 187 195 208 221 224 226 230 234 240 250 249 249 257 254 256 253 256 264 267 271 267 259 249 248
107 109 116 119 124 131 134 133 138 142 143 150 155 160 164 171 166 172 191 188 187 205 202 240 259 146 164 163 164 165 176 191 208 226 230 236 239 238 227 202 213 227 235 243 256 266 266 270 269 270 265 251 247 247
118 117 114 116 119 122 126 132 139 142 140 138 151 157 144 142 143 138 175 189 199 209 215 223 172 140 143 155 159 158 169 187 190 197 211 235 243 238 235 237 243 250 255 264 267 262 256 266 272 270 256 242 234 238
119 122 123 119 114 118 114 118 117 124 131 123 131 145 145 142 151 153 166 192 220 205 209 219 144 132 128 139 152 164 172 190 189 205 206 233 201 218 229 234 240 245 253 251 242 257 279 264 280 264 232 249 261 266
110 125 126 120 125 123 122 129 111 97 108 133 143 145 111 111 127 160 168 165 179 187 208 220 219 185 160 164 136 163 171 160 325 207 223 193 178 205 217 225 231 237 240 244 250 259 265 285 272 263 262 248 244 250
99 126 129 117 99 108 111 108 127 124 133 132 131 140 138 149 162 166 184 183 188 181 203 211 209 197 200 189 163 167 178 161 141 242 220 216 179 187 187 207 219 231 244 249 248 261 251 261 264 250 242 238 242 248
106 112 117 122 124 128 150 145 144 151 150 152 138 173 182 200 179 180 179 177 167 171 164 163 178 189 196 174 182 172 166 166 172 214 226 225 194 158 150 152 169 181 195 207 224 239 254 253 255 261 255 248 240 236
132 133 141 141 131 147 156 153 155 166 178 245 202 149 157 169 171 171 176 187 200 198 149 148 170 180 185 193 176 185 165 149 191 212 201 160 156 152 157 162 174 182 193 208 221 233 233 218 200 171 192 238 264 274
145 144 151 160 162 138 158 151 165 186 228 189 149 155 160 161 164 163 175 182 186 176 178 192 198 178 151 178 153 160 155 160 166 169 158 156 151 152 155 164 173 189 228 260 209 175 157 153 163 192 251 280 289 287
155 160 167 171 169 163 156 157 266 67 118 124 141 138 152 162 164 170 171 175 179 182 188 203 207 174 155 150 152 155 156 152 162 160 154 147 149 161 168 179 193 208 176 157 143 141 144 162 214 260 276 280 279 279
170 154 148 145 142 173 195 278 112 105 109 122 128 135 133 132 146 160 166 165 180 191 187 152 136 151 137 143 148 149 153 155 161 161 164 159 162 170 175 169 156 148 147 150 158 171 200 247 267 277 284 288 289 289
148 164 179 179 162 152 106 101 122 109 112 106 109 120 129 127 127 134 142 148 154 153 138 128 129 132 136 142 148 151 152 148 157 169 168 158 150 148 148 145 147 149 158 171 189 227 268 285 293 296 296 295 294 293
153 145 151 157 148 16 99 92 100 117 106 101 96 100 100 97 111 125 155 159 179 130 117 121 126 130 132 135 141 144 143 142 154 167 164 160 151 152 151 150 149 156 171 238 287 295 296 294 294 295 296 298 299 299
93 108 104 183 226 14 75 84 110 101 98 95 98 101 99 101 103 99 100 159 119 119 121 122 126 130 129 128 132 132 129 136 152 155 150 150 146 147 152 159 172 246 284 291 293 294 295 296 299 301 303 304 305 305
84 94 103 93 70 77 93 97 88 90 99 90 98 85 80 78 86 101 100 109 115 115 117 123 123 125 131 129 128 130 133 143 149 148 143 145 155 171 209 282 299 296 296 297 299 301 304 306 307 308 309 310 311 311
75 69 58 60 75 98 101 104 105 98 105 101 91 92 87 93 100 110 112 115 115 117 118 121 125 130 132 134 142 142 141 146 160 168 171 177 214 276 290 290 292 297 302 307 309 310 311 313 314 315 315 315 315 315
67 61 72 69 76 85 94 95 104 115 110 105 101 105 105 112 116 121 124 127 127 129 130 128 128 131 141 153 157 161 164 164 172 186 227 262 272 273 285 298 306 309 313 314 316 317 318 318 318 318 319 320 320 322
72 48 68 85 91 80 98 101 110 110 103 79 92 109 116 116 100 140 150 146 147 150 148 145 146 152 165 166 167 168 176 188 205 205 234 275 294 303 309 314 319 320 320 320 320 321 321 321 321 323 325 328 329 330
86 77 78 83 84 95 101 109 110 92 57 56 115 128 127 128 139 166 166 162 160 162 160 159 160 156 164 168 162 157 162 196 231 272 300 310 316 320 321 322 322 322 323 322 321 322 323 326 328 330 332 334 334 335
106 94 89 85 91 92 98 102 90 67 60 82 114 164 247 221 214 181 174 170 168 167 167 165 166 167 164 163 176 208 249 283 303 311 314 316 320 321 322 322 322 321 321 322 324 327 330 333 335 336 337 338 340 341
98 94 88 87 88 90 85 79 75 70 62 42 7 315 290 265 192 181 177 174 174 175 175 176 179 183 192 212 237 263 278 293 309 315 316 317 318 318 319 321 322 323 325 327 329 332 334 336 338 340 343 344 345 344
93 88 93 98 96 88 81 75 70 58 49 42 41 39 88 137 164 174 175 177 178 183 187 193 205 216 230 244 248 263 289 302 309 312 314 317 320 322 323 324 324 325 327 330 333 335 337 339 342 344 345 345 346 347
94 94 91 89 87 83 77 68 61 55 47 47 58 81 91 121 152 169 178 183 191 199 208 213 220 222 218 236 266 289 301 307 310 311 313 317 319 321 322 324 325 327 329 333 336 338 339 341 342 342 343 344 346 347
94 89 81 78 78 68 59 56 48 40 30 32 44 73 154 172 192 206 205 205 208 212 213 208 205 218 244 268 289 301 304 307 308 312 314 316 318 322 325 327 329 330 333 335 336 336 337 338 340 341 342 342 343 344
87 80 72 64 58 50 39 32 22 6 345 322 297 263 248 234 233 231 224 213 206 200 203 215 233 255 281 297 301 301 302 306 310 312 314 317 322 325 328 329 330 333 334 333 333 335 337 338 339 339 339 339 340 341
Height
2716 2705 2703 2696 2683 2677 2680 2701 2720 2738 2756 2772 2786 2796 2815 2832 2848 2860 2872 2886 2898 2907 2914 2922 2930 2935 2945 2957 2963 2974 2989 2991 2996 3001 3004 3007 3009 3012 3017 3020 3020 3022 3024 3025 3029 3029 3030 3034 3036 3038 3038 3038 3039 3039
2716 2708 2702 2693 2684 2678 2681 2697 2717 2737 2755 2771 2785 2799 2814 2830 2845 2858 2869 2883 2894 2906 2912 2915 2923 2928 2939 2949 2961 2964 2973 2981 2986 2994 2997 3001 3002 3007 3009 3011 3018 3019 3019 3022 3021 3021 3024 3027 3030 3031 3032 3033 3033 3033
2718 2711 2706 2700 2696 2695 2700 2712 2727 2744 2758 2771 2785 2799 2814 2830 2845 2856 2867 2879 2893 2904 2911 2915 2917 2925 2934 2942 2953 2962 2971 2977 2980 2985 2991 2996 2998 3002 3003 3005 3009 3009 3014 3015 3017 3015 3018 3022 3024 3026 3026 3027 3027 3026
2726 2716 2714 2712 2711 2714 2720 2729 2740 2751 2762 2774 2787 2802 2818 2835 2847 2855 2866 2878 2893 2902 2910 2911 2915 2920 2929 2939 2947 2957 2965 2971 2976 2982 2986 2989 2993 2996 2997 3001 3001 3003 3005 3007 3006 3010 3013 3016 3017 3019 3019 3020 3020 3019
2737 2729 2723 2723 2725 2729 2734 2742 2750 2759 2769 2781 2795 2809 2826 2838 2846 2857 2871 2883 2895 2905 2906 2908 2909 2915 2920 2930 2939 2949 2958 2964 2970 2974 2976 2981 2987 2990 2990 2992 2991 2995 2998 2999 2999 3006 3008 3011 3010 3011 3012 3011 3011 3010
2748 2743 2739 2737 2737 2741 2745 2752 2759 2769 2779 2791 2804 2819 2829 2839 2849 2862 2876 2883 2888 2896 2904 2905 2907 2910 2914 2926 2933 2941 2951 2958 2965 2969 2973 2976 2979 2985 2984 2982 2985 2987 2990 2994 2996 2999 3000 3002 3002 3003 3003 3003 3002 3001
2760 2757 2754 2753 2754 2757 2760 2766 2774 2782 2792 2804 2815 2825 2835 2845 2859 2869 2875 2879 2885 2895 2905 2908 2907 2906 2914 2925 2933 2939 2947 2952 2958 2963 2965 2971 2974 2976 2975 2975 2981 2982 2984 2988 2990 2991 2992 2994 2993 2994 2994 2993 2993 2994
2767 2768 2768 2768 2769 2772 2776 2782 2789 2796 2805 2813 2823 2833 2845 2855 2865 2873 2878 2882 2890 2898 2903 2906 2901 2907 2913 2919 2926 2935 2941 2948 2953 2958 2960 2964 2967 2967 2965 2968 2973 2976 2979 2981 2983 2984 2985 2986 2986 2985 2985 2985 2986 2986
2775 2775 2776 2779 2782 2785 2789 2794 2800 2807 2815 2824 2833 2841 2850 2860 2867 2874 2880 2885 2893 2900 2899 2897 2894 2893 2899 2909 2921 2930 2937 2944 2948 2950 2954 2959 2957 2956 2959 2963 2967 2970 2972 2974 2976 2977 2978 2978 2978 2978 2977 2977 2978 2978
2783 2783 2784 2787 2791 2795 2799 2805 2810 2816 2823 2830 2839 2847 2856 2866 2872 2877 2885 2890 2895 2897 2899 2897 2893 2896 2904 2912 2921 2929 2934 2940 2943 2946 2949 2947 2945 2950 2955 2958 2961 2963 2966 2967 2968 2969 2969 2969 2968 2968 2968 2968 2969 2970
2792 2793 2795 2798 2801 2804 2808 2812 2818 2824 2833 2841 2846 2854 2863 2869 2875 2881 2886 2892 2895 2897 2896 2897 2897 2898 2899 2912 2918 2925 2929 2934 2937 2941 2942 2939 2938 2942 2946 2951 2954 2956 2958 2960 2960 2961 2962 2961 2961 2961 2961 2961 2961 2961
2802 2805 2808 2811 2814 2818 2821 2825 2832 2838 2841 2845 2851 2859 2864 2872 2880 2883 2887 2890 2888 2895 2894 2895 2897 2902 2906 2913 2919 2924 2927 2930 2931 2934 2934 2930 2929 2933 2937 2941 2945 2948 2950 2952 2953 2953 2954 2954 2954 2954 2954 2956 2956 2956
2815 2816 2820 2822 2826 2830 2835 2838 2840 2843 2847 2853 2861 2863 2866 2872 2876 2877 2880 2883 2884 2887 2894 2898 2903 2908 2912 2915 2918 2921 2923 2926 2927 2928 2927 2927 2926 2928 2932 2935 2938 2941 2943 2944 2944 2947 2949 2950 2950 2950 2950 2950 2951 2952
2828 2828 2830 2832 2836 2839 2843 2846 2850 2853 2857 2862 2866 2870 2872 2872 2875 2877 2877 2885 2887 2890 2895 2899 2904 2910 2913 2915 2917 2920 2922 2923 2922 2925 2924 2924 2925 2926 2927 2930 2933 2936 2939 2940 2942 2944 2944 2946 2947 2947 2948 2948 2949 2950
2839 2840 2841 2843 2845 2848 2851 2854 2857 2861 2863 2865 2867 2867 2869 2872 2874 2876 2880 2887 2891 2894 2897 2901 2907 2910 2911 2914 2914 2916 2918 2917 2919 2923 2923 2924 2925 2926 2927 2929 2931 2934 2936 2938 2940 2941 2942 2943 2943 2944 2945 2946 2946 2948
2847 2848 2850 2851 2854 2857 2859 2862 2865 2867 2868 2869 2869 2869 2870 2873 2875 2877 2880 2886 2891 2895 2899 2903 2905 2908 2909 2910 2911 2912 2913 2913 2919 2921 2922 2924 2925 2926 2929 2930 2932 2934 2936 2937 2938 2939 2940 2941 2942 2944 2945 2946 2946 2947
2852 2854 2855 2857 2859 2862 2865 2868 2869 2869 2870 2869 2869 2870 2871 2874 2877 2879 2882 2885 2890 2895 2898 2900 2902 2902 2904 2905 2907 2908 2910 2914 2917 2919 2921 2923 2925 2927 2929 2930 2932 2934 2935 2936 2937 2939 2941 2942 2943 2944 2945 2946 2945 2945
2853 2856 2858 2861 2864 2867 2869 2869 2870 2870 2869 2870 2871 2872 2873 2874 2877 2879 2882 2886 2889 2892 2896 2898 2900 2899 2899 2901 2904 2906 2909 2912 2916 2919 2921 2923 2925 2927 2929 2930 2932 2934 2935 2936 2938 2940 2940 2943 2944 2944 2943 2943 2943 2943
2858 2859 2861 2865 2868 2869 2869 2870 2870 2870 2872 2873 2873 2874 2875 2876 2877 2880 2883 2885 2888 2891 2894 2893 2894 2895 2896 2900 2903 2907 2910 2913 2917 2919 2922 2924 2926 2928 2929 2931 2933 2934 2936 2937 2938 2939 2940 2941 2942 2942 2941 2940 2940 2939
2861 2864 2867 2869 2870 2871 2871 2872 2873 2873 2874 2875 2876 2876 2877 2877 2879 2881 2884 2886 2887 2889 2889 2891 2894 2897 2900 2903 2907 2910 2912 2915 2918 2920 2922 2925 2927 2929 2930 2932 2934 2935 2936 2937 2938 2938 2938 2939 2939 2939 2938 2937 2935 2934
2865 2867 2868 2869 2870 2871 2872 2874 2875 2877 2878 2878 2879 2879 2878 2880 2881 2882 2884 2885 2887 2887 2889 2893 2897 2900 2903 2906 2908 2911 2914 2917 2919 2922 2923 2925 2927 2930 2932 2933 2934 2935 2936 2936 2937 2936 2936 2936 2936 2935 2933 2932 2930 2928
2868 2870 2871 2872 2873 2874 2875 2876 2878 2879 2881 2882 2883 2883 2883 2883 2883 2884 2885 2887 2886 2891 2895 2898 2901 2904 2906 2909 2911 2913 2916 2919 2922 2924 2925 2927 2929 2931 2932 2933 2933 2934 2934 2934 2934 2934 2933 2933 2931 2930 2928 2926 2923 2920
2871 2873 2875 2874 2876 2880 2883 2883 2883 2883 2885 2886 2886 2886 2887 2887 2887 2889 2889 2891 2894 2897 2900 2903 2906 2908 2911 2912 2915 2917 2919 2922 2924 2925 2927 2928 2930 2931 2932 2932 2932 2932 2932 2931 2931 2930 2929 2928 2926 2924 2921 2918 2915 2912
2877 2877 2877 2879 2881 2884 2886 2886 2887 2887 2888 2889 2890 2890 2891 2892 2894 2894 2895 2899 2901 2904 2906 2909 2911 2913 2915 2917 2918 2920 2922 2924 2926 2927 2927 2928 2929 2930 2930 2930 2930 2930 2929 2928 2927 2925 2924 2922 2919 2916 2914 2910 2907 2903
2883 2883 2884 2885 2886 2888 2888 2889 2890 2891 2892 2894 2894 2895 2896 2897 2898 2901 2903 2905 2907 2909 2910 2912 2915 2916 2919 2920 2921 2922 2923 2924 2926 2927 2927 2928 2928 2928 2928 2928 2928 2927 2925 2924 2922 2920 2918 2915 2913 2910 2906 2903 2899 2895
2883 2886 2888 2888 2889 2890 2890 2892 2894 2894 2895 2896 2897 2898 2900 2901 2902 2904 2906 2907 2909 2911 2912 2914 2916 2918 2920 2921 2922 2922 2923 2924 2925 2925 2926 2927 2927 2927 2926 2925 2924 2923 2921 2919 2917 2914 2912 2909 2906 2903 2900 2896 2893 2889
2887 2892 2892 2892 2892 2893 2894 2896 2897 2897 2898 2898 2899 2900 2901 2902 2902 2905 2906 2909 2911 2913 2914 2916 2917 2918 2920 2921 2921 2922 2923 2924 2925 2925 2925 2925 2924 2923 2923 2922 2920 2918 2916 2914 2912 2910 2907 2904 2901 2897 2894 2891 2887 2884
2892 2895 2896 2897 2897 2897 2898 2899 2899 2900 2900 2901 2902 2902 2902 2902 2903 2904 2906 2909 2911 2913 2915 2916 2918 2919 2920 2921 2922 2923 2923 2923 2923 2923 2922 2922 2921 2920 2919 2918 2916 2915 2913 2910 2908 2905 2902 2900 2897 2893 2890 2887 2883 2878
2897 2898 2900 2900 2901 2901 2901 2902 2903 2903 2904 2903 2903 2902 2902 2901 2902 2904 2906 2909 2911 2913 2915 2916 2918 2919 2920 2920 2921 2921 2921 2921 2921 2920 2920 2919 2919 2918 2916 2914 2912 2910 2908 2906 2903 2901 2899 2896 2893 2890 2886 2882 2878 2874
2901 2902 2904 2904 2904 2904 2905 2906 2906 2906 2905 2905 2904 2903 2902 2902 2904 2906 2908 2910 2913 2914 2916 2917 2918 2918 2919 2919 2919 2919 2919 2919 2919 2919 2917 2916 2916 2914 2913 2911 2908 2906 2904 2901 2899 2897 2895 2892 2889 2886 2883 2879 2875 2871
2905 2907 2907 2907 2907 2908 2908 2908 2907 2907 2907 2906 2906 2906 2907 2907 2908 2909 2910 2912 2913 2914 2915 2915 2916 2917 2917 2918 2918 2918 2918 2917 2916 2916 2914 2913 2912 2911 2909 2907 2905 2902 2900 2898 2896 2894 2891 2889 2886 2883 2880 2876 2872 2867
2909 2909 2910 2909 2910 2910 2910 2909 2909 2909 2908 2908 2908 2908 2908 2909 2909 2911 2911 2911 2912 2913 2913 2914 2915 2915 2916 2916 2916 2915 2915 2914 2913 2913 2911 2910 2909 2907 2905 2903 2901 2899 2898 2896 2894 2892 2889 2886 2883 2880 2876 2872 2869 2864
2910 2911 2911 2911 2911 2911 2911 2911 2910 2909 2909 2908 2908 2908 2908 2908 2909 2910 2910 2910 2911 2911 2912 2913 2913 2914 2914 2914 2913 2912 2912 2911 2910 2909 2908 2906 2905 2904 2902 2900 2899 2897 2896 2894 2892 2889 2886 2883 2880 2876 2873 2869 2865 2861